Simultaneous Nadir Overpasses (SNOs) Predictions

Prediction of SNOs between GOES-14 and NPP Satellite Orbit:

Table of predicted SNOs for the next 14.0 days since TLE Epoch: 12/14/2024
Index Date Time (GOES-14) GOES-14 Lat,Lon NPP Lat,Lon Distance(km) Time Diff (sec)
1 12/15/2024 08:45:49 0.10,-108.47 0.40,-109.82 153.35 80
2 12/16/2024 08:24:26 0.08,-108.46 -0.63,-105.30 360.92 80
3 12/17/2024 20:49:05 -0.11,-108.39 -0.63,-110.59 251.95 80
4 12/18/2024 20:27:42 -0.09,-108.39 0.40,-106.07 262.80 80
5 12/20/2024 08:52:13 0.12,-108.44 0.76,-111.36 331.63 80
6 12/21/2024 08:30:50 0.10,-108.44 -0.28,-106.84 183.15 80
7 12/22/2024 20:55:28 -0.14,-108.37 -0.97,-112.14 429.28 80
8 12/23/2024 20:34:06 -0.12,-108.36 0.08,-107.62 85.86 80
9 12/26/2024 08:39:52 0.14,-108.42 0.15,-108.35 7.19 80
